Volver al catálogo

ALSAT 1N

ActivoCienciaSSO
NORAD 41789·PAYLOAD·🇩🇿 Algeria

Lanzado Sep 26, 2016 desde Satish Dhawan Space Centre

Loading…

Próximos Pases (próximas 24 horas)

TLE

ActualizadoSource: Space-Track

Época: Sep 14, 2026, 11:01 UTC

1 41789U 16059G   26257.45937699  .00000549  00000-0  10033-3 0  9992
2 41789  97.8059 256.8652 0024314 262.8336  97.0106 14.69432226533112

Sigue ALSAT 1N en tiempo real con AllMySat

Download on the App Store